This demonstration page uses our WeatherBlox Daily Observations layout. Learn more.

Left ArrowRight Arrow

41.55636, -103.73856

Hourly Observations for December 25, 2018

Temp ( °F °C ) Dew Point ( °F °C ) Humidity (%) Winds ( mph kmh ) Pressure ( in mb ) Visibility ( mi km ) Precip ( " mm )
5:58 pm 17:58 Mostly Clear 33 0.7 26 -3.6 73 73 WNW 9 15 30.04 1017 10 16 N/A
6:58 pm 18:58 Clear 29 -1.5 24 -4.4 81 81 WNW 9 15 30.07 1018 10 16 N/A
7:58 pm 19:58 Clear 30 -1 24 -4.2 79 79 W 14 22 30.05 1018 10 16 N/A
8:58 pm 20:58 Clear 30 -1.3 23 -4.9 77 77 W 14 22 30.06 1018 10 16 N/A
9:58 pm 21:58 Clear 30 -1.1 22 -5.8 71 71 W 15 24 30.04 1017 10 16 N/A
10:58 pm 22:58 Clear 29 -1.4 20 -6.4 69 69 W 13 20 30.03 1017 10 16 N/A
11:58 pm 23:58 Clear 25 -3.7 19 -7.2 77 77 WNW 12 19 30.06 1018 10 16 N/A
12:58 am 00:58 Clear 25 -3.7 18 -7.7 74 74 WNW 9 15 30.06 1018 10 16 N/A
1:58 am 01:58 Clear 28 -2.5 18 -7.6 68 68 W 6 9 30.05 1018 10 16 N/A
2:58 am 02:58 Clear 23 -4.8 17 -8.5 76 76 W 10 17 30.09 1019 10 16 N/A
3:58 am 03:58 Clear 24 -4.5 17 -8.4 74 74 W 9 15 30.10 1019 10 16 N/A
4:58 am 04:58 Mostly Cloudy 28 -2.4 19 -7.5 68 68 W 10 17 30.10 1019 10 16 N/A
5:58 am 05:58 Mostly Cloudy 27 -2.9 20 -6.9 74 74 W 5 7 30.11 1020 10 16 N/A
6:58 am 06:58 Mostly Clear 26 -3.1 19 -7.1 74 74 WSW 8 13 30.13 1020 10 16 N/A
7:58 am 07:58 Sunny 27 -2.8 20 -6.7 75 75 SW 8 13 30.13 1020 10 16 N/A
8:58 am 08:58 Sunny 32 0 23 -5 69 69 S 6 9 30.12 1020 10 16 N/A
9:58 am 09:58 Sunny 36 2 23 -5 60 60 SSE 8 13 30.11 1020 10 16 N/A
10:58 am 10:58 Partly Cloudy 36 2 25 -4 65 65 SSE 12 19 30.10 1019 10 16 N/A
11:58 am 11:58 Mostly Cloudy 36 2.3 24 -4.6 61 61 SE 12 19 30.08 1019 10 16 N/A
12:58 pm 12:58 Mostly Cloudy 37 3 25 -3.9 61 61 SE 14 22 30.04 1017 10 16 N/A
1:58 pm 13:58 Mostly Sunny 39 4 27 -3 61 61 ESE 13 20 30.00 1016 10 16 N/A
2:58 pm 14:58 Sunny 41 5 24 -4.3 51 51 SE 15 24 30.03 1017 10 16 N/A
3:58 pm 15:58 Mostly Cloudy 38 3.5 26 -3.5 61 61 ESE 12 19 30.03 1017 10 16 N/A
4:58 pm 16:58 Mostly Clear 34 0.9 27 -3 75 75 ESE 13 20 30.04 1017 10 16 N/A

Powered by AerisWeather